Weather History for Fort Drum, NY

Change the Weather History Date:

Tuesday, January 21, 2014

  Actual Average Record
Temperature  
Mean Temperature -10 °F -  
Max Temperature -4 °F 20 °F 51 °F (2006)
Min Temperature -17 °F 4 °F -20 °F (2005)
Degree Days  
Heating Degree Days 75    
Moisture  
Dew Point -17 °F    
Average Humidity 76    
Maximum Humidity 84    
Minimum Humidity 59    
Precipitation  
Precipitation 0.00 in - - ()
Sea Level Pressure  
Sea Level Pressure 30.14 in    
Wind  
Wind Speed 3 mph (NE)    
Max Wind Speed 10 mph    
Max Gust Speed -    
Visibility 9 miles    
Events      
Averages and records for this station are not official NWS values.
T = Trace of Precipitation, MM = Missing Value Source: NWS Daily Summary

Daily Weather History Graph

Daily Weather History Graph

Search for Another Location

Airport:

Trip Planner

Search our weather history database for the weather conditions in past years. The results will help you decide how hot, cold, wet, or windy it might be!

Date:

Astronomy

Jan. 21, 2014 Rise Set
Actual Time 7:30 AM EST 4:58 PM EST
Civil Twilight 6:59 AM EST 5:29 PM EST
Nautical Twilight 6:23 AM EST 6:05 PM EST
Astronomical Twilight 5:49 AM EST 6:39 PM EST
Moon 10:42 PM EST (1/21) 9:47 AM EST (1/21)
Length of Visible Light 10h 30m
Length of Day
9h 27m
Waning Gibbous, 75% of the Moon is Illuminated
Jan 21
Waning Gibbous
Jan 24
Last Quarter
Jan 30
New
Feb 6
First Quarter
Feb 14
Full

Hourly Weather History & Observations

Time (EST) Temp. Windchill Dew Point Humidity Pressure Visibility Wind Dir Wind Speed Gust Speed Precip Events Conditions
12:40 AM -11.2 °F - -14.8 °F 84% 30.02 in 2.0 mi Calm Calm - N/A   Light Freezing Rain
12:45 AM -9.4 °F - -13.0 °F 84% 30.02 in 1.8 mi NE 1.2 mph - N/A   Light Freezing Rain
12:49 AM -9.4 °F - -13.0 °F 84% 30.02 in 4.0 mi NE 2.3 mph - N/A   Haze
12:58 AM -9.6 °F - -13.5 °F 83% 30.08 in 10.0 mi NE 2.3 mph - 0.00 in   Clear
1:58 AM -9.0 °F - -15.2 °F 75% 30.11 in 10.0 mi ENE 2.3 mph - N/A   Clear
2:58 AM -11.4 °F -23.2 °F -16.4 °F 78% 30.11 in 10.0 mi ENE 4.6 mph - N/A   Clear
3:58 AM -11.4 °F -20.8 °F -16.2 °F 79% 30.11 in 10.0 mi ENE 3.5 mph - N/A   Clear
4:58 AM -13.7 °F - -17.5 °F 83% 30.13 in 10.0 mi ESE 1.2 mph - N/A   Clear
5:58 AM -13.5 °F - -17.7 °F 82% 30.14 in 10.0 mi NE 2.3 mph - N/A   Clear
6:58 AM -16.6 °F -29.3 °F -20.9 °F 81% 30.13 in 10.0 mi NE 4.6 mph - N/A   Clear
7:58 AM -14.8 °F -24.8 °F -19.1 °F 81% 30.15 in 10.0 mi NE 3.5 mph - N/A   Clear
8:58 AM -13.9 °F -28.1 °F -18.2 °F 81% 30.15 in 10.0 mi NE 5.8 mph - N/A   Clear
9:58 AM -11.4 °F -20.8 °F -15.7 °F 81% 30.18 in 10.0 mi ENE 3.5 mph - N/A   Partly Cloudy
10:58 AM -8.5 °F -17.6 °F -13.5 °F 79% 30.20 in 10.0 mi NNE 3.5 mph - N/A   Partly Cloudy
11:58 AM -6.9 °F -17.9 °F -14.4 °F 70% 30.18 in 10.0 mi NNE 4.6 mph - N/A   Clear
12:58 PM -5.4 °F -18.0 °F -14.4 °F 65% 30.16 in 10.0 mi North 5.8 mph - N/A   Clear
1:58 PM -5.1 °F -17.6 °F -14.6 °F 63% 30.15 in 10.0 mi NNE 5.8 mph - N/A   Clear
2:58 PM -4.0 °F -20.2 °F -15.0 °F 59% 30.14 in 10.0 mi NNE 9.2 mph - N/A   Partly Cloudy
3:58 PM -4.4 °F -21.6 °F -15.3 °F 59% 30.14 in 10.0 mi NE 10.4 mph - N/A   Partly Cloudy
4:58 PM -7.1 °F -22.8 °F -16.8 °F 63% 30.14 in 10.0 mi NNE 8.1 mph - N/A   Clear
5:58 PM -9.9 °F -23.4 °F -17.7 °F 69% 30.15 in 10.0 mi NNE 5.8 mph - N/A   Clear
6:58 PM -10.7 °F -22.3 °F -17.1 °F 73% 30.17 in 10.0 mi NNE 4.6 mph - N/A   Clear
7:58 PM -12.8 °F -24.9 °F -18.0 °F 78% 30.17 in 10.0 mi NNE 4.6 mph - N/A   Clear
8:58 PM -14.8 °F - -19.8 °F 78% 30.19 in 10.0 mi NE 2.3 mph - N/A   Clear
9:58 PM -15.9 °F -28.4 °F -20.9 °F 78% 30.19 in 10.0 mi NE 4.6 mph - N/A   Clear
10:58 PM -16.4 °F -29.1 °F -21.3 °F 79% 30.17 in 10.0 mi NE 4.6 mph - N/A   Clear
11:58 PM -17.7 °F - -22.4 °F 79% 30.15 in 10.0 mi ENE 2.3 mph - N/A   Clear